Weather History for Fort Wayne, IN

Change the Weather History Date:

Saturday, May 24, 2014

  Actual Average Record
Temperature  
Mean Temperature 62 °F 63 °F  
Max Temperature 77 °F 74 °F 91 °F (2007)
Min Temperature 46 °F 52 °F 36 °F (1963)
Degree Days  
Heating Degree Days 3 4  
Month to date heating degree days 182 167  
Since 1 July heating degree days 6951 6049  
Cooling Degree Days 0 2  
Month to date cooling degree days 37 29  
Year to date cooling degree days 38 37  
Growing Degree Days 12 (Base 50)    
Moisture  
Dew Point 47 °F    
Average Humidity 63    
Maximum Humidity 93    
Minimum Humidity 33    
Precipitation  
Precipitation 0.00 in 0.15 in 1.46 in (1971)
Month to date precipitation 4.28 3.12  
Year to date precipitation 16.25 13.65  
Snow  
Snow 0.00 in 0.00 in T in (1925)
Month to date snowfall 0.0 0.0  
Since 1 July snowfall 74.7 33.5  
Snow Depth 0.00 in    
Sea Level Pressure  
Sea Level Pressure 30.18 in    
Wind  
Wind Speed 3 mph (NNE)    
Max Wind Speed 10 mph    
Max Gust Speed 13 mph    
Visibility 10 miles    
Events      
T = Trace of Precipitation, MM = Missing Value Source: NWS Daily Summary

Daily Weather History Graph

Daily Weather History Graph

Search for Another Location

Airport:

Trip Planner

Search our weather history database for the weather conditions in past years. The results will help you decide how hot, cold, wet, or windy it might be!

Date:

Astronomy

May. 24, 2014 Rise Set
Actual Time 6:15 AM EDT 9:00 PM EDT
Civil Twilight 5:43 AM EDT 9:32 PM EDT
Nautical Twilight 5:03 AM EDT 10:12 PM EDT
Astronomical Twilight 4:17 AM EDT 10:59 PM EDT
Moon 3:46 AM EDT (5/24) 4:54 PM EDT (5/24)
Length of Visible Light 15h 48m
Length of Day
14h 44m
Waning Crescent, 18% of the Moon is Illuminated
May 24
Waning Crescent
May 28
New
Jun 5
First Quarter
Jun 13
Full
Jun 19
Last Quarter

Hourly Weather History & Observations

Time (EDT) Temp. Dew Point Humidity Pressure Visibility Wind Dir Wind Speed Gust Speed Precip Events Conditions
12:54 AM 53.1 °F 46.0 °F 77% 30.18 in 10.0 mi North 5.8 mph - N/A   Clear
1:54 AM 51.1 °F 46.0 °F 83% 30.17 in 10.0 mi North 4.6 mph - N/A   Clear
2:54 AM 50.0 °F 45.0 °F 83% 30.17 in 10.0 mi North 3.5 mph - N/A   Clear
3:54 AM 48.0 °F 45.0 °F 89% 30.19 in 10.0 mi NW 3.5 mph - N/A   Partly Cloudy
4:54 AM 48.0 °F 44.1 °F 86% 30.19 in 10.0 mi West 3.5 mph - N/A   Partly Cloudy
5:54 AM 48.0 °F 45.0 °F 89% 30.19 in 10.0 mi Calm Calm - N/A   Partly Cloudy
6:54 AM 48.9 °F 46.0 °F 90% 30.21 in 10.0 mi Calm Calm - N/A   Scattered Clouds
7:54 AM 55.0 °F 50.0 °F 83% 30.22 in 10.0 mi NE 3.5 mph - N/A   Scattered Clouds
8:54 AM 61.0 °F 50.0 °F 67% 30.22 in 10.0 mi ENE 5.8 mph - N/A   Scattered Clouds
9:54 AM 66.9 °F 51.1 °F 57% 30.23 in 10.0 mi ESE 4.6 mph - N/A   Partly Cloudy
10:54 AM 69.1 °F 48.9 °F 49% 30.24 in 10.0 mi ESE 3.5 mph - N/A   Scattered Clouds
11:54 AM 72.0 °F 48.0 °F 43% 30.23 in 10.0 mi Calm Calm - N/A   Scattered Clouds
12:54 PM 73.0 °F 46.9 °F 39% 30.22 in 10.0 mi Variable 3.5 mph - N/A   Mostly Cloudy
1:54 PM 73.4 °F 48.2 °F 41% 30.20 in 10.0 mi Calm Calm - N/A   Mostly Cloudy
2:54 PM 75.0 °F 46.9 °F 37% 30.19 in 10.0 mi Variable 3.5 mph - N/A   Mostly Cloudy
3:54 PM 75.9 °F 46.9 °F 36% 30.17 in 10.0 mi East 9.2 mph - N/A   Mostly Cloudy
4:54 PM 75.9 °F 45.0 °F 33% 30.16 in 10.0 mi NNE 5.8 mph - N/A   Mostly Cloudy
5:54 PM 75.9 °F 46.0 °F 35% 30.15 in 10.0 mi North 3.5 mph - N/A   Mostly Cloudy
6:54 PM 75.0 °F 46.9 °F 37% 30.14 in 10.0 mi Calm Calm - N/A   Mostly Cloudy
7:54 PM 73.9 °F 46.9 °F 38% 30.14 in 10.0 mi NNW 3.5 mph - N/A   Mostly Cloudy
8:54 PM 68.0 °F 48.9 °F 50% 30.14 in 10.0 mi East 3.5 mph - N/A   Mostly Cloudy
9:54 PM 66.0 °F 48.0 °F 52% 30.14 in 10.0 mi East 3.5 mph - N/A   Mostly Cloudy
10:54 PM 62.6 °F 48.2 °F 59% 30.16 in 10.0 mi Calm Calm - N/A   Mostly Cloudy
11:54 PM 59.0 °F 50.0 °F 72% 30.16 in 10.0 mi Calm Calm - N/A   Mostly Cloudy